Regional Weather Roundup
Issued by NWS

Home | Current Version | Previous Version | Text Only | Print | Product List | Glossary On
Versions: 1 2 3 4 5 6 7 8 9 10 11 12 13 14 15 16 17 18 19 20 21 22 23 24 25 26 27 28 29 30 31 32 33 34 35 36 37 38 39 40 41 42 43 44 45 46 47 48 49 50
000
ASUS45 KABQ 231210
RWRNM
NEW MEXICO REGIONAL WEATHER ROUNDUP
NATIONAL WEATHER SERVICE ALBUQUERQUE NM
600 AM MDT SAT MAY 23 2015

NOTE: "FAIR" MEANS FEW OR NO CLOUDS BELOW 12,000 FEET AGL WITH NO
       SIGNIFICANT WEATHER OR OBSTRUCTIONS TO VISION.

      THIS PRODUCT IS RELEASED AS TWO VERSIONS.  ONE VERSION NEAR
      THE TOP OF THE HOUR CONTAINING PRELIMINARY DATA FROM ALBUQUERQUE
      AND OTHER STATIONS.  A FINAL VERSION WITH ADDITIONAL DATA IS
      ISSUED ABOUT 10 MINUTES AFTER THE HOUR.

NMZ501-503-504-510>518-231300-
NORTHWEST PLATEAU/NORTHCENTRAL MOUNTAINS

CITY           SKY/WX    TMP DP  RH WIND       PRES   REMARKS
FARMINGTON     PTCLDY    44  31  60 SE3       30.00F
6HR MIN TEMP:  40; 6HR MAX TEMP:  55;

LOS ALAMOS     PTCLDY    47  26  44 E6        30.06R
SANTA FE       CLEAR     44  42  93 N5        30.02R
6HR MIN TEMP:  43; 6HR MAX TEMP:  56;

TAOS           PTCLDY    39  32  75 NE3       30.06R
ANGEL FIRE     FAIR      38  36  95 N3        30.10R

$$
NMZ402-403-502-505>509-231300-
WESTCENTRAL MOUNTAINS/SOUTHWEST MOUNTAINS

CITY           SKY/WX    TMP DP  RH WIND       PRES   REMARKS
GALLUP         MOCLDY    38  27  64 S3        30.06S
6HR MIN TEMP:  36; 6HR MAX TEMP:  50;

GRANTS         CLEAR     38  31  73 N6        30.08R WCI  34
SILVER CITY    PTCLDY    45  27  49 NW9       30.06S

$$
NMZ407-409-411-412-231300-
SOUTHERN DESERTS

CITY           SKY/WX    TMP DP  RH WIND       PRES   REMARKS
LORDSBURG      FAIR      45  27  49 CALM      30.02S
DEMING         PTCLDY    47  24  40 CALM      30.02R
6HR MIN TEMP:  45; 6HR MAX TEMP:  65;

LAS CRUCES     PTCLDY    54  26  34 W9        30.01S
HOLLOMAN AFB   MOCLDY    57  37  46 SW5       29.97S
ALAMOGORDO     PTCLDY    55  28  35 SE5       30.00R
T OR C         CLOUDY    58  28  32 CALM      29.99R
6HR MIN TEMP:  54; 6HR MAX TEMP:  67;


$$
NMZ519>523-231300-
CENTRAL VALLEYS/CENTRAL HIGHLANDS

CITY           SKY/WX    TMP DP  RH WIND       PRES   REMARKS
ALBUQUERQUE    MOCLDY    55  30  38 CALM      30.02R
6HR MIN TEMP:  51; 6HR MAX TEMP:  62;

DOUBLE EAGLE   PTCLDY    48  34  57 NW8       30.03S
MORIARTY ARPT  FAIR      40  33  78 E5        30.04S
6HR MIN TEMP:  39; 6HR MAX TEMP:  56;

CLINES CORNERS CLEAR     43  32  65 W14       30.02S
6HR MIN TEMP:  43; 6HR MAX TEMP:  54;

BELEN          FAIR      51  30  45 CALM      30.01S
6HR MIN TEMP:  50; 6HR MAX TEMP:  57;

SOCORRO        FAIR      54  33  45 NW5       30.00R
6HR MIN TEMP:  51; 6HR MAX TEMP:  60;


$$
NMZ524>526-539-540-231300-
SOUTHCENTRAL MOUNTAINS

CITY           SKY/WX    TMP DP  RH WIND       PRES   REMARKS
RUIDOSO        CLEAR     50  23  34 CALM      30.09R

$$
NMZ527>531-231300-
NORTHEAST HIGHLANDS/NORTHEAST PLAINS

CITY           SKY/WX    TMP DP  RH WIND       PRES   REMARKS
LAS VEGAS      CLOUDY    50  49  96 S9        30.03R FOG
6HR MIN TEMP:  49; 6HR MAX TEMP:  53; 6HR PCP: TRACE;

RATON          CLOUDY    52  51  97 S13       30.00R
6HR MIN TEMP:  50; 6HR MAX TEMP:  55; 6HR PCP:  0.11;

CLAYTON        CLOUDY    52  50  93 E7        30.00F
6HR MIN TEMP:  52; 6HR MAX TEMP:  57; 6HR PCP:  0.25;


$$
NMZ532>537-231300-
EASTCENTRAL PLAINS

CITY           SKY/WX    TMP DP  RH WIND       PRES   REMARKS
TUCUMCARI      CLOUDY    54  51  90 E8        29.97R
6HR MIN TEMP:  53; 6HR MAX TEMP:  64; 6HR PCP:  0.39;

CANNON AFB     MOCLDY    60  60 100 S10       29.97S
6HR MIN TEMP:  52; 6HR MAX TEMP:  62; 6HR PCP:  0.65;

CLOVIS AIRPORT CLOUDY    57  55  94 NW14      30.00R

$$
NMZ028-029-538-231300-
SOUTHEAST PLAINS

CITY           SKY/WX    TMP DP  RH WIND       PRES   REMARKS
ROSWELL        CLOUDY    65  62  90 S12       29.93S
6HR MIN TEMP:  65; 6HR MAX TEMP:  68;

ARTESIA        FOG       63  63 100 SW7       29.95R VSB 3/4
CARLSBAD       PTCLDY    65  62  90 S5        29.93R FOG
6HR MIN TEMP:  64; 6HR MAX TEMP:  69;

HOBBS          CLOUDY    63  63 100 S5        29.97S FOG


$$


USA.gov is the U.S. government's official web portal to all federal, state and local government web resources and services.